EA1GLE Weather Reports


time (UTC)temp
C
wind
direction
speed
KPH
gust
KPH
rain 1hr
cm
rain 24hr
cm
rain mn
cm
humidity
%
barometer
mb
20260508020003 8 74 1.6 9.7 0.00 0.08 0.00 87 1012.8
20260508015403 8 65 3.2 6.4 0.00 0.08 0.00 87 1012.9
20260508013603 8 78 3.2 11.3 0.00 0.08 0.00 87 1012.9
20260508012703 8 76 3.2 11.3 0.00 0.08 0.00 87 1013.0
20260508011803 8 77 3.2 11.3 0.00 0.08 0.00 88 1013.0
20260508010903 8 77 3.2 11.3 0.00 0.08 0.00 88 1013.2
20260508010217 8 68 3.2 11.3 0.00 0.08 0.00 88 1013.1
20260508004503 9 76 3.2 9.7 0.00 0.08 0.00 87 1013.7
20260508003603 9 79 1.6 9.7 0.00 0.08 0.00 87 1013.4
20260508002703 8 80 1.6 4.8 0.00 0.08 0.00 88 1013.6
20260508001803 8 77 1.6 4.8 0.00 0.08 0.00 89 1013.9
20260508000903 9 65 1.6 4.8 0.00 0.08 0.00 89 1013.8
20260507234503 9 77 1.6 6.4 0.00 0.08 0.00 88 1013.6
20260507233817 9 71 1.6 6.4 0.00 0.08 0.00 89 1013.8
20260507232703 9 71 3.2 9.7 0.00 0.08 0.00 88 1013.9
20260507232018 9 76 1.6 6.4 0.00 0.08 0.00 89 1014.0
20260507230004 9 72 3.2 9.7 0.00 0.08 0.00 88 1014.0
20260507225403 9 75 1.6 6.4 0.00 0.08 0.00 88 1014.1
20260507224504 9 76 1.6 6.4 0.00 0.08 0.00 89 1014.1
20260507223603 9 77 1.6 6.4 0.00 0.08 0.00 89 1014.0
20260507222703 9 73 1.6 6.4 0.00 0.08 0.00 89 1014.1
20260507220903 8 57 3.2 4.8 0.00 0.08 0.00 90 1014.1
20260507220004 8 49 3.2 4.8 0.00 0.08 0.00 90 1014.1
20260507215403 8 48 3.2 4.8 0.00 0.08 0.08 91 1014.0
20260507214503 8 58 1.6 4.8 0.00 0.08 0.08 92 1014.0
20260507213603 8 58 3.2 4.8 0.00 0.08 0.08 91 1014.1
20260507211803 8 42 3.2 4.8 0.00 0.08 0.08 91 1014.1
20260507210903 8 43 1.6 4.8 0.00 0.08 0.08 91 1014.2
20260507210003 8 49 1.6 4.8 0.00 0.08 0.08 90 1014.1
20260507205403 8 52 1.6 1.6 0.00 0.08 0.08 90 1014.1
20260507204503 9 32 0.0 4.8 0.00 0.08 0.08 89 1013.9
20260507203603 9 32 3.2 4.8 0.00 0.08 0.08 90 1013.6
20260507201118 10 66 1.6 3.2 0.00 0.08 0.08 88 1013.6
20260507200003 10 65 1.6 4.8 0.00 0.08 0.08 87 1013.0
20260507195403 10 65 1.6 4.8 0.00 0.08 0.08 88 1013.0
20260507194503 10 67 1.6 4.8 0.00 0.08 0.08 88 1012.8
20260507193817 10 72 1.6 3.2 0.00 0.08 0.08 87 1012.8
20260507191803 11 58 4.8 9.7 0.00 0.08 0.08 84 1012.7
20260507190903 11 58 3.2 11.3 0.00 0.08 0.08 83 1012.6
20260507190004 12 59 4.8 12.9 0.00 0.08 0.08 82 1012.8
20260507185618 12 58 4.8 12.9 0.00 0.08 0.08 81 1012.5
20260507184503 12 56 6.4 12.9 0.00 0.08 0.08 80 1012.5
20260507181803 13 83 1.6 3.2 0.00 0.08 0.08 77 1012.4
20260507181117 13 51 1.6 4.8 0.00 0.08 0.08 78 1012.3
20260507180218 13 41 4.8 9.7 0.00 0.08 0.08 78 1012.3
20260507175403 13 54 4.8 9.7 0.00 0.08 0.08 78 1012.2
20260507174717 12 58 3.2 9.7 0.00 0.08 0.08 78 1012.1
20260507173603 12 74 6.4 14.5 0.00 0.08 0.08 78 1012.2
20260507170903 12 60 6.4 17.7 0.00 0.08 0.08 79 1012.9
20260507170218 12 61 8.0 17.7 0.00 0.08 0.08 78 1012.7
20260507165403 13 60 6.4 17.7 0.00 0.08 0.08 75 1012.6
20260507164503 13 44 4.8 14.5 0.00 0.08 0.08 74 1012.8
20260507162703 12 56 4.8 11.3 0.00 0.08 0.08 79 1012.9
20260507161803 12 64 6.4 14.5 0.00 0.08 0.08 81 1013.2
20260507160904 12 46 8.0 17.7 0.00 0.08 0.08 80 1013.0
20260507160217 12 40 8.0 17.7 0.00 0.08 0.08 81 1013.3
20260507155403 12 36 9.7 16.1 0.03 0.08 0.08 81 1013.2
20260507152703 11 39 8.0 17.7 0.05 0.08 0.08 85 1013.2
20260507151803 11 34 6.4 12.9 0.08 0.08 0.08 86 1013.2
20260507151118 11 39 4.8 12.9 0.08 0.08 0.08 87 1013.2
20260507150003 11 35 4.8 12.9 0.05 0.05 0.05 86 1013.2
20260507145403 11 34 6.4 12.9 0.05 0.05 0.05 87 1013.4
20260507143817 12 260 0.0 3.2 0.05 0.05 0.05 89 1013.0
20260507142703 12 168 11.3 27.4 0.03 0.03 0.05 84 1013.1
20260507142018 13 168 11.3 29.0 0.00 0.00 0.00 74 1012.8
20260507140903 16 76 1.6 6.4 0.00 0.00 0.00 62 1011.8
20260507135403 16 78 3.2 9.7 0.00 0.00 0.00 63 1011.8
20260507132703 16 73 4.8 16.1 0.00 0.00 0.00 62 1011.6
20260507131803 16 74 4.8 17.7 0.00 0.00 0.00 64 1011.6
20260507130903 16 61 11.3 24.1 0.00 0.00 0.00 65 1011.8
20260507130004 16 64 9.7 22.5 0.00 0.00 0.00 66 1011.8
20260507125403 16 71 6.4 14.5 0.00 0.00 0.00 65 1011.8
20260507124503 16 29 6.4 19.3 0.00 0.00 0.00 65 1011.8
20260507121803 17 216 6.4 14.5 0.00 0.00 0.00 46 1012.1
20260507120903 18 184 3.2 14.5 0.00 0.00 0.00 47 1012.3
20260507120004 17 208 6.4 14.5 0.00 0.00 0.00 49 1012.5
20260507115618 17 214 4.8 14.5 0.00 0.00 0.00 53 1012.3
20260507114503 18 214 6.4 11.3 0.00 0.00 0.00 47 1012.6
20260507113818 17 205 4.8 12.9 0.00 0.00 0.00 50 1012.8
20260507112918 17 200 6.4 16.1 0.00 0.00 0.00 50 1012.9
20260507111803 16 234 6.4 16.1 0.00 0.00 0.00 51 1013.0
20260507110903 16 200 8.0 14.5 0.00 0.00 0.00 54 1012.9
20260507110004 16 208 8.0 14.5 0.00 0.00 0.00 54 1013.1
20260507104717 16 259 4.8 14.5 0.00 0.00 0.00 55 1013.0
20260507103603 16 185 4.8 11.3 0.00 0.00 0.00 59 1012.9
20260507102703 16 221 3.2 9.7 0.00 0.00 0.00 58 1013.1
20260507101803 15 214 6.4 12.9 0.00 0.00 0.00 60 1013.0
20260507100903 16 189 1.6 4.8 0.00 0.00 0.00 56 1013.2
20260507100004 15 175 4.8 9.7 0.00 0.00 0.00 60 1013.4
20260507095403 15 177 4.8 11.3 0.00 0.00 0.00 59 1013.1
20260507094503 16 106 3.2 6.4 0.00 0.00 0.00 60 1013.2
20260507093603 15 129 3.2 14.5 0.00 0.00 0.00 63 1013.5
20260507092703 15 141 4.8 11.3 0.00 0.00 0.00 64 1013.5
20260507090903 15 171 4.8 12.9 0.00 0.00 0.00 67 1013.5
20260507085403 15 157 4.8 14.5 0.00 0.00 0.00 65 1013.7
20260507084503 14 190 6.4 12.9 0.00 0.00 0.00 71 1013.4
20260507083603 15 174 3.2 6.4 0.00 0.00 0.00 67 1013.7
20260507080903 13 117 1.6 4.8 0.00 0.00 0.00 71 1013.2
20260507080217 13 150 3.2 6.4 0.00 0.00 0.00 71 1013.2
20260507075403 12 138 1.6 6.4 0.00 0.00 0.00 73 1013.4
20260507074503 13 114 1.6 6.4 0.00 0.00 0.00 72 1013.3
20260507073818 13 113 3.2 6.4 0.00 0.00 0.00 73 1013.1
20260507072917 12 90 1.6 4.8 0.00 0.00 0.00 73 1013.4
20260507071803 12 83 1.6 4.8 0.00 0.00 0.00 75 1013.3
20260507070903 12 61 1.6 6.4 0.00 0.00 0.00 78 1013.2
20260507070007 11 54 3.2 9.7 0.00 0.00 0.00 82 1013.2
20260507065403 11 61 3.2 6.4 0.00 0.00 0.00 81 1013.4
20260507064718 10 62 1.6 6.4 0.00 0.00 0.00 82 1013.2
20260507063817 10 67 1.6 4.8 0.00 0.00 0.00 82 1013.4
20260507061803 10 99 0.0 1.6 0.00 0.00 0.00 86 1013.2
20260507060903 8 69 0.0 3.2 0.00 0.00 0.00 88 1013.2
20260507060003 8 71 1.6 3.2 0.00 0.00 0.00 89 1013.4
20260507055403 8 57 1.6 4.8 0.00 0.00 0.00 91 1013.4
20260507054503 7 51 3.2 4.8 0.00 0.00 0.00 92 1013.3
20260507053603 7 60 1.6 4.8 0.00 0.00 0.00 94 1013.3
20260507052918 7 63 1.6 4.8 0.00 0.00 0.00 95 1013.3
20260507051803 6 63 1.6 3.2 0.00 0.00 0.00 95 1013.1
20260507050903 7 62 1.6 9.7 0.00 0.00 0.00 95 1013.2
20260507050003 6 54 1.6 4.8 0.00 0.00 0.00 96 1013.3
20260507042703 7 52 6.4 14.5 0.00 0.00 0.00 96 1013.4
20260507041803 7 52 4.8 16.1 0.00 0.00 0.00 96 1013.3
20260507041117 7 47 3.2 14.5 0.00 0.00 0.00 96 1013.3
20260507040003 7 76 1.6 6.4 0.00 0.00 0.00 96 1013.4
20260507035618 7 81 1.6 6.4 0.00 0.00 0.00 96 1013.5
20260507034717 7 53 3.2 11.3 0.00 0.00 0.00 96 1013.5
20260507033603 7 35 6.4 12.9 0.00 0.00 0.00 96 1013.4
20260507032917 7 36 6.4 12.9 0.00 0.00 0.00 96 1013.5
20260507031803 7 35 1.6 9.7 0.00 0.00 0.00 96 1013.6
20260507030903 7 0 0.0 0.0 0.00 0.00 0.00 96 1013.7
20260507024503 7 86 0.0 3.2 0.00 0.00 0.00 96 1013.5
20260507023603 7 0 0.0 0.0 0.00 0.00 0.00 96 1013.6
20260507022703 7 64 0.0 1.6 0.00 0.00 0.00 96 1013.6
20260507021803 7 67 0.0 3.2 0.00 0.00 0.00 95 1013.9
20260507020903 7 62 0.0 1.6 0.00 0.00 0.00 95 1013.8